Location: Bogis-Bossey
(46.3500°N, 6.1667°E)
Time: 17:51:30
(UTC+00:00)

IRS-1C Rocket - Pass Details

Date: 17 August 2022
Orbit: 800 x 806 km, 98.9° (Epoch: 30 September)

Event Time Altitude Azimuth Distance (km) Brightness Sun altitude
Rises 19:17:30 0° 165° (SSE) 3,308 6.9 -6.5°
Reaches altitude 10° 19:19:49 10° 166° (SSE) 2,381 6.2 -6.9°
Maximum altitude 19:25:06 83° 255° (WSW) 818 4.2 -7.7°
Drops below altitude 10° 19:30:25 10° 344° (NNW) 2,397 7.3 -8.5°
Sets 19:32:46 0° 345° (NNW) 3,331 8.0 -8.8°
